User: anonymous   Login
Location: Kelshall
(52.0000°N, 0.0500°W)
Time: 17:11:46
(UTC+00:00)
Language:

Meteor 1-24 Rocket - Orbit

View from above orbital plane
View from above orbital plane
View from above satellite
View from above satellite

Ground track
Ground track

The orbit data is extracted from the following two-line orbital elements,

1  8800U 76032B   21163.20666423 -.00000218  00000-0 -12540-3 0  9994
2  8800  81.2511 240.7765 0094809  23.1164 337.4228 14.10160871323381
Epoch (UTC): 12 June 2021 04:57:35
Eccentricity: 0.0094809
inclination: 81.2511°
perigee height: 790 km
apogee height: 927 km
right ascension of ascending node: 240.7765°
argument of perigee: 23.1164°
revolutions per day: 14.10160871
mean anomaly at epoch: 337.4228°
orbit number at epoch: 32338

The dashed part of the orbit path shows where the satellite is in the earth's shadow,  

DLR